Probability
5 3 1 0 0 0 0 0 0 0 0 0 0 0 0 0 0 0 0 0 0 1 2 3 3 3 3 2 1 0 0 0 0 0 0 0 0 0 0 0 0 0 0
5 4 2 1 0 0 0 0 0 0 0 0 0 0 0 0 0 0 0 0 0 0 1 3 3 3 3 2 1 0 0 0 0 0 0 0 0 0 0 0 0 0 0
4 4 3 1 0 0 0 0 0 0 0 0 0 0 0 0 0 0 0 0 0 0 1 3 3 3 2 1 0 0 0 0 0 0 0 0 0 0 0 0 0 0 0
2 3 3 2 1 0 0 0 0 0 0 0 0 0 0 0 0 0 0 0 0 1 2 3 3 2 1 0 0 0 0 0 0 0 0 0 0 0 0 0 0 0 0
1 2 3 3 2 1 0 0 0 0 0 0 0 0 0 0 0 0 0 0 0 1 2 2 1 1 0 0 0 0 0 0 0 0 0 0 0 0 0 0 0 0 0
0 1 3 3 2 1 0 0 0 0 0 0 0 0 0 0 0 0 0 0 0 0 1 1 0 0 0 0 0 0 0 0 0 0 0 0 0 0 0 0 0 0 1
0 1 2 3 2 1 0 0 0 0 0 0 0 0 0 0 0 0 0 0 0 0 0 0 0 0 0 0 0 0 0 0 0 0 0 0 0 0 0 0 0 1 2
0 0 1 2 2 1 0 0 0 0 0 0 0 0 0 0 0 0 0 0 0 0 0 0 0 0 0 0 0 0 0 0 0 0 0 0 0 1 0 0 0 2 3
0 0 0 1 1 1 0 0 0 0 0 0 0 0 0 0 0 0 0 0 0 0 0 0 0 0 0 0 0 0 0 0 0 0 0 0 0 0 0 0 0 1 2
0 0 0 0 0 0 0 0 0 0 0 0 0 0 0 0 0 0 0 0 0 0 0 0 0 0 0 0 0 0 0 0 0 0 0 0 0 0 0 0 0 0 1
0 0 0 0 0 0 0 0 0 0 0 0 0 0 0 0 0 0 0 0 0 0 0 0 0 0 0 0 0 0 0 0 0 0 0 0 0 1 1 1 2 1 0
0 0 0 0 0 0 0 0 0 0 0 0 0 0 0 0 0 0 0 0 0 0 0 0 0 0 0 0 0 0 0 0 0 0 0 0 0 1 2 2 3 2 1
0 0 0 0 0 0 0 0 0 0 0 0 0 0 0 0 0 0 0 0 0 0 0 0 0 0 0 0 0 0 0 0 0 0 0 0 0 1 1 1 2 3 3
0 0 0 0 0 0 0 0 0 0 0 0 0 0 0 0 0 0 0 0 0 0 0 0 0 0 0 0 0 0 0 0 0 0 0 0 0 0 0 0 1 2 2
0 0 0 0 0 0 0 0 0 0 0 0 0 0 0 0 0 0 0 0 0 0 0 0 0 0 0 0 0 0 0 0 0 0 0 0 0 0 0 0 0 1 1
0 0 0 0 0 0 0 0 0 0 0 0 0 0 0 0 0 0 0 0 0 0 0 0 0 0 0 0 0 0 0 0 0 0 0 0 0 0 0 0 0 0 0
0 0 0 0 0 0 0 0 0 0 0 0 0 0 0 0 0 0 0 0 0 0 0 0 0 0 0 0 0 0 0 0 0 0 0 0 0 0 0 0 0 0 0
0 0 0 0 0 0 0 0 0 0 0 0 0 0 0 0 0 0 0 0 0 0 0 0 0 0 0 0 0 0 0 0 0 0 0 0 0 0 0 0 0 0 0
0 0 0 0 0 0 0 0 0 0 0 0 0 0 0 0 0 0 0 0 0 0 0 0 0 0 0 0 0 0 0 0 0 0 0 0 0 0 0 0 0 0 0
0 0 0 0 0 0 0 0 0 0 0 0 0 0 0 0 0 0 0 0 0 0 0 0 0 0 0 0 0 0 0 0 0 0 0 0 0 0 0 0 0 0 0
0 0 0 0 0 0 0 0 0 0 0 0 0 0 0 0 0 0 0 0 0 0 0 0 0 0 0 0 0 0 0 0 0 0 0 0 0 0 0 0 0 0 0
0 0 0 0 0 0 0 0 0 0 0 0 0 0 0 0 0 0 0 0 0 0 0 0 0 0 0 0 0 0 0 0 0 0 0 0 0 0 0 0 0 0 0
0 0 0 0 0 0 0 0 0 0 0 0 0 0 0 0 0 0 0 0 0 0 0 0 0 0 0 0 0 0 0 0 0 0 0 0 0 0 0 0 0 0 0
0 0 0 0 0 0 0 0 0 0 0 0 0 0 0 0 0 0 0 0 0 0 0 0 0 0 0 0 0 0 0 0 0 0 0 0 0 0 0 0 0 0 0
0 0 0 0 0 0 0 0 0 0 0 0 0 0 0 0 0 0 0 0 0 0 0 0 0 0 0 0 0 0 0 0 0 0 0 0 0 0 0 0 0 0 0
0 0 0 0 0 0 0 0 0 0 0 0 0 0 0 0 0 0 0 0 0 0 0 0 0 0 0 0 0 0 0 0 0 0 0 0 0 0 0 0 0 0 0
Wind_Speed
2 2 2 2 2 2 2 2 3 3 4 4 4 4 4 5 4 4 3 7 8 8 9 9 10 10 10 10 10 10 10 11 11 11 12 12 12 12 12 11 11 11 11
2 2 2 2 2 2 2 2 3 3 3 3 4 4 4 4 4 4 3 4 7 8 8 8 8 8 9 10 10 9 10 10 10 11 11 11 11 11 11 11 10 10 10
3 2 2 2 2 2 2 2 3 3 3 3 4 4 3 3 3 4 3 2 3 5 7 7 7 7 8 9 9 9 9 10 10 10 9 9 9 9 9 9 9 9 9
3 3 2 2 2 2 2 2 2 3 3 3 3 3 3 3 3 3 3 2 2 2 4 6 6 6 7 8 9 8 8 8 8 8 8 8 8 7 7 7 7 8 8
3 3 2 2 2 2 2 2 2 2 3 3 3 3 3 2 2 3 3 3 3 3 2 4 6 6 6 7 7 7 7 7 7 7 6 6 6 6 5 5 6 6 6
3 3 2 2 2 3 2 2 3 3 3 4 4 4 3 3 3 3 3 3 3 4 3 3 3 3 5 6 6 6 6 5 5 5 5 5 5 4 4 4 4 5 5
3 3 2 2 2 2 3 3 3 4 3 3 4 3 3 3 3 2 3 3 3 3 3 3 2 2 2 4 4 4 4 4 4 3 3 3 3 3 3 3 3 3 3
2 2 3 2 2 2 3 3 3 2 2 1 3 3 1 2 2 2 2 2 3 3 3 3 2 2 2 1 2 3 3 2 2 2 2 1 1 1 1 1 1 1 1
2 3 2 2 2 3 3 2 2 3 3 1 1 2 3 2 0 1 1 2 2 2 1 1 2 2 2 2 1 2 2 2 1 1 1 1 1 1 1 1 1 1 0
2 3 3 3 3 3 3 3 2 1 3 3 0 1 1 3 3 1 1 1 1 1 1 1 1 1 1 1 1 1 1 1 1 1 2 2 2 2 2 2 2 2 2
1 2 2 2 3 3 3 3 2 2 2 3 2 1 1 1 1 3 2 1 1 1 0 1 1 1 1 1 1 1 1 1 1 2 2 2 2 3 4 4 4 4 3
1 2 2 2 3 3 3 3 2 2 2 2 2 2 2 2 2 2 2 2 1 1 1 1 1 1 1 1 1 1 0 1 2 2 3 3 3 3 4 4 4 3 3
2 3 2 2 2 3 3 2 2 2 2 2 2 2 1 1 2 2 2 1 1 1 1 1 1 1 1 1 1 1 2 2 3 3 4 3 3 3 3 3 4 3 3
3 3 3 2 3 3 3 3 2 2 2 2 2 2 1 1 1 2 2 2 1 1 1 2 1 1 1 1 2 2 2 4 4 4 4 4 3 3 4 4 4 4 4
3 4 4 3 3 3 3 3 3 3 2 3 3 2 2 2 1 1 1 2 3 3 3 3 2 2 1 1 2 2 2 4 4 5 5 4 4 4 4 4 4 4 4
3 3 4 4 3 3 3 3 3 3 3 3 2 3 2 2 2 2 2 2 2 3 3 2 2 2 2 1 3 2 3 4 5 5 5 4 5 5 4 5 5 5 5
3 4 4 4 4 4 4 4 3 4 4 3 3 3 3 2 2 2 2 2 2 2 3 2 1 1 2 2 2 2 2 3 3 5 6 6 6 6 6 6 6 6 5
3 3 4 4 4 4 5 5 5 5 5 5 4 4 4 3 3 3 3 3 3 2 2 3 1 1 2 3 2 2 2 2 3 5 6 7 7 7 7 7 6 6 6
3 4 4 5 5 5 5 6 6 6 6 5 5 5 5 4 4 3 4 4 3 2 2 2 2 1 1 2 2 2 2 2 3 4 6 7 7 8 8 7 6 6 6
4 4 4 5 5 5 5 6 6 6 5 5 6 6 6 6 6 5 5 5 4 3 2 2 2 2 2 2 2 2 2 2 3 2 4 5 6 7 8 7 6 6 6
4 4 4 4 4 4 5 6 6 6 6 5 5 6 6 7 7 6 5 5 5 4 3 3 3 2 2 2 3 2 3 2 3 2 2 3 3 3 4 6 6 6 6
3 3 4 4 5 5 7 8 6 5 5 5 5 5 5 6 8 9 9 8 7 6 6 5 4 5 5 4 2 3 2 2 3 2 2 3 2 3 3 3 5 6 6
3 4 4 4 5 6 8 9 9 5 5 5 5 5 4 5 7 5 7 8 8 9 9 7 6 6 5 5 4 4 4 4 4 2 2 4 2 3 3 3 5 6 6
4 4 4 4 4 5 8 9 8 5 5 5 6 6 6 5 6 6 5 4 5 6 7 5 5 5 4 4 5 5 4 3 2 2 2 3 3 3 2 2 5 5 5
4 4 4 4 5 5 8 8 7 4 4 5 5 5 5 5 8 8 5 5 5 4 5 6 6 5 6 6 5 2 2 2 3 3 2 2 2 2 2 2 3 5 5
4 4 4 4 5 5 7 8 7 4 4 4 4 5 7 7 8 9 6 6 6 5 3 3 4 4 4 5 6 5 4 4 3 3 2 2 2 0 2 2 1 2 3
Wind_Direction
87 90 91 85 68 56 71 73 72 74 72 69 69 69 68 72 83 85 72 70 78 86 94 99 102 101 98 94 91 90 89 87 85 83 80 78 78 76 73 71 68 66 67
80 87 89 86 75 63 61 77 81 79 76 72 67 64 68 73 81 87 83 70 71 78 89 95 98 103 103 101 97 94 91 88 86 83 80 78 76 75 71 68 66 65 66
86 80 84 82 75 81 82 77 78 80 82 79 73 65 67 70 80 83 82 78 77 74 83 94 98 99 103 103 100 97 94 92 88 85 82 78 75 72 71 69 67 65 65
83 84 83 84 79 80 89 88 91 91 86 80 74 64 61 71 71 77 79 78 79 87 83 87 88 97 107 107 107 105 100 97 93 90 87 82 77 74 70 68 68 67 65
82 94 92 90 85 85 86 92 89 100 104 85 76 66 60 73 78 82 87 87 79 77 85 85 84 84 97 105 106 106 105 100 98 95 92 88 81 76 74 73 70 68 65
91 93 99 90 88 94 86 86 97 90 101 97 80 62 49 56 65 79 90 87 83 79 82 84 89 85 89 102 105 106 107 106 100 96 95 92 87 78 75 77 74 70 63
107 99 108 103 92 105 107 104 111 108 100 100 91 68 35 40 57 66 74 82 83 81 80 82 86 87 88 93 101 102 106 114 110 108 102 100 92 83 80 82 74 69 63
131 117 121 124 116 116 113 112 117 124 123 107 120 120 95 33 17 34 60 83 89 75 72 73 77 89 96 93 94 97 101 102 113 126 128 123 115 107 105 95 70 58 45
146 135 131 137 135 128 135 137 136 137 145 163 132 139 145 167 104 10 46 81 92 93 83 77 77 72 81 91 101 79 91 99 99 184 189 205 221 222 224 237 230 243 311
159 145 141 148 144 139 146 162 154 162 149 155 178 26 136 139 143 133 352 32 60 90 114 89 84 80 84 83 98 118 106 122 201 246 245 237 245 251 255 259 254 248 258
165 158 157 154 150 153 158 161 163 172 158 157 158 138 119 88 122 142 177 242 345 308 178 165 157 142 128 116 123 114 116 246 244 252 262 258 258 264 265 266 265 267 269
175 176 167 158 163 162 168 171 171 179 163 157 164 155 152 154 166 150 164 179 216 266 266 209 189 178 163 137 132 103 18 287 266 264 267 267 268 273 276 277 277 282 287
192 198 187 175 176 171 167 161 164 175 175 171 180 183 181 181 157 142 141 167 224 256 229 247 212 185 168 149 166 197 240 263 275 270 264 265 271 276 284 294 295 296 302
197 191 191 187 185 171 165 162 168 183 180 184 188 178 175 195 179 153 151 148 165 260 236 233 244 197 185 177 202 214 238 248 257 268 272 269 275 281 279 278 281 289 296
182 181 186 187 191 176 173 170 177 190 187 190 189 189 194 197 181 183 169 167 171 210 237 219 205 218 208 195 219 226 232 242 252 265 270 274 273 275 279 279 280 283 285
172 175 183 186 188 184 180 178 181 190 190 202 195 189 206 201 184 191 193 200 199 197 231 230 220 203 192 222 235 239 242 247 249 257 261 264 266 265 266 274 277 277 280
173 181 194 190 188 191 186 185 192 196 193 201 198 195 207 206 195 191 190 197 213 201 227 262 265 185 182 209 236 246 249 239 238 245 253 256 258 260 261 263 270 273 274
185 187 195 197 199 203 194 191 201 204 201 202 201 198 210 209 208 200 195 204 212 212 204 231 250 230 218 209 217 235 251 250 241 246 251 255 256 257 258 260 260 267 271
192 193 195 200 205 207 202 204 205 209 209 208 204 204 208 203 211 209 201 202 208 212 207 212 232 235 245 215 207 255 258 264 260 251 251 252 253 254 256 257 256 260 267
200 200 203 206 209 213 211 209 210 210 212 214 209 206 206 205 209 207 208 204 198 199 201 212 222 221 233 228 191 216 257 254 261 265 254 253 254 256 255 254 253 255 259
216 206 204 209 211 216 216 210 209 210 211 214 210 208 209 211 214 212 218 206 196 198 200 214 221 217 216 209 213 213 234 256 267 258 260 259 255 252 248 250 249 251 259
219 212 209 209 215 226 227 223 223 211 209 210 213 215 214 210 214 219 229 225 211 205 206 211 223 221 224 217 209 212 216 234 260 235 238 263 243 247 247 238 254 261 256
218 218 216 210 219 229 233 229 229 221 214 213 211 212 219 219 218 213 227 230 225 223 217 210 218 224 218 210 200 212 219 229 243 231 235 264 249 250 251 253 263 262 255
220 223 222 217 223 238 238 232 230 221 219 216 213 209 210 213 215 210 210 218 223 225 225 220 218 222 220 208 205 212 217 234 263 236 218 251 249 251 260 257 263 263 262
225 225 226 220 223 236 240 237 233 215 219 217 215 209 207 209 221 217 207 213 225 231 229 227 231 233 229 223 212 189 196 209 251 244 215 221 241 268 269 255 256 267 279
229 225 230 222 220 226 237 240 236 219 220 222 216 210 215 219 221 218 208 206 220 217 201 218 231 236 227 220 218 205 198 208 231 242 208 200 224 223 282 272 256 267 270